Regional Weather Roundup
Issued by NWS

Home | Current Version | Previous Version | Graphics & Text | Print | Product List | Glossary On
Versions: 1 2 3 4 5 6 7 8 9 10 11 12 13 14 15 16 17 18 19 20 21 22 23 24 25 26 27 28 29 30 31 32 33 34 35 36 37 38 39 40 41 42 43 44 45 46 47 48 49 50
000
ASUS43 KIND 030409
RWRIN

WEATHER ROUNDUP FOR INDIANA
NATIONAL WEATHER SERVICE INDIANAPOLIS IN
1200 AM EDT SUN MAY 03 2015

NOTE: "FAIR" INDICATES FEW OR NO CLOUDS BELOW 12,000 FEET WITH NO
SIGNIFICANT WEATHER AND/OR OBSTRUCTIONS TO VISIBILITY.

* - STATION DOES NOT REPORT WEATHER SUCH AS PRECIPITATION OR FOG.

+ - STATION NOT QUALITY CONTROLLED BY THE NATIONAL WEATHER SERVICE.
    USE DATA WITH CAUTION...ESPECIALLY DEWPOINT AND RELATIVE
    HUMIDITY OBSERVATIONS.

INZ001>003-010>013-019-020-030500-
NORTHWEST INDIANA

CITY           SKY/WX    TMP DP  RH WIND       PRES   REMARKS
GARY /AIRPORT/ MOCLDY    65  31  27 S5        29.99S
KNOX *+        MOCLDY    59  21  23 SW6       30.00S
LA PORTE +     PTCLDY    63  39  42 S5        30.01S
MICHIGAN CITY+ PTCLDY    63  30  29 S6        30.00S
MONTICELLO +   MOCLDY    59  43  54 SW6       30.02S
VALPARAISO     MOCLDY    61  37  41 S5        30.01S

$$

LMZ046-743>745-030500-
SOUTHERN LAKE MICHIGAN

STATION/POSITION TIME  TEMP    WIND        PRES    WAVE
                       AIR SEA DIR/SP/G            HT
                 (UTC) (F)     (DEG/KT/KT) (MB)    (FT)
BURNS HARBOR     0400   66     190/  9/ 11 1015.9S
MICHIGAN CITY    0400   67     170/ 11/ 13   N/A
5NW MICH CITY    0400   59 51  200/  8/  8   N/A     0

$$

INZ004-005-014>016-021>024-030500-
NORTH CENTRAL INDIANA

CITY           SKY/WX    TMP DP  RH WIND       PRES   REMARKS
GOSHEN         PTCLDY    60  40  47 S8        30.01S
LOGANSPORT +   MOCLDY    54  41  62 SW7       30.04S
PERU/GRISSOM   MOCLDY    56  45  66 SW7       30.02F
ROCHESTER +    MOCLDY    64  41  42 SW6       30.03S
SOUTH BEND     PTCLDY    63  36  36 S6        30.01S
WARSAW +       PTCLDY    57  41  54 CALM      30.03S

$$

INZ006>009-017-018-025>027-030500-
NORTHEAST INDIANA

CITY           SKY/WX    TMP DP  RH WIND       PRES   REMARKS
ANGOLA *+      CLEAR     54  43  66 CALM      30.03S
AUBURN +       CLEAR     57  41  54 CALM      30.03F
FORT WAYNE     MOCLDY    56  43  61 S5        30.04S
HUNTINGTON +   PTCLDY    54  45  70 CALM      30.03S

$$

INZ028-029-035-036-043>045-051>053-030500-
WEST CENTRAL INDIANA

CITY           SKY/WX    TMP DP  RH WIND       PRES   REMARKS
CRAWFORDSVL +  MOCLDY    52  41  65 CALM      30.05S
GREENCASTLE +  MOCLDY    55  37  50 CALM      30.06S
LAFAYETTE      MOCLDY    59  42  53 CALM      30.03S
TERRE HAUTE    MOCLDY    58  45  62 CALM      30.05S

$$

INZ030>032-037>040-046>048-054>057-064-065-030500-
CENTRAL INDIANA

CITY           SKY/WX    TMP DP  RH WIND       PRES   REMARKS
CP ATTERBURY + MOCLDY    52  46  82 SW5       30.07S
FISHERS *+     MOCLDY    54  46  76 CALM      30.05F
FRANKFORT +    MOCLDY    58  45  60 S5        30.06S
GREENWOOD *+   MOCLDY    59  43  55 SW3       30.06F
INDIANAPOLIS   MOCLDY    60  42  51 SW6       30.04S
-EAGLE CREEK   MOCLDY    58  44  60 CALM      30.05S
MARION +       MOCLDY    54  44  70 S3        30.05S
MT COMFORT *+  MOCLDY    57  36  44 SW3       30.06S
SHELBYVILLE    PTCLDY    58  46  64 S6        30.05S
ZIONSVILLE +   MOCLDY    57  44  62 SW3       30.06S

$$

INZ033-034-041-042-049-050-058-059-030500-
EAST CENTRAL INDIANA

CITY           SKY/WX    TMP DP  RH WIND       PRES   REMARKS
MUNCIE         PTCLDY    60  44  55 S6        30.05S

$$

INZ060-061-067>069-081>083-085>088-030500-
SOUTHWEST INDIANA

CITY           SKY/WX    TMP DP  RH WIND       PRES   REMARKS
EVANSVILLE     PTCLDY    58  49  72 CALM      30.06F
HUNTINGBURG *+ MOCLDY    55  48  76 CALM      30.07S
WASHINGTON +   MOCLDY    55  45  67 S3        30.05F

$$

INZ062-063-066-070>080-084-089>092-030500-
SOUTH CENTRAL AND SOUTHEAST INDIANA

CITY           SKY/WX    TMP DP  RH WIND       PRES   REMARKS
BEDFORD +      PTCLDY    57  43  58 CALM      30.07S
BLOOMINGTON    MOCLDY    55  46  71 CALM      30.06F
MADISON *+     PTCLDY    55  45  67 CALM      30.09S
NORTH VERNON + PTCLDY    54  52  94 CALM      30.08S
SEYMOUR +      MOCLDY    57  46  67 S3        30.07S

$$



USA.gov is the U.S. government's official web portal to all federal, state and local government web resources and services.